Location: Lake Sonoma
(38.7200°N, 123.0564°W)
Time: 04:59:38
(UTC-07:00)

Amateur Radio Satellites - All Passes

Search period start: 21 October 2014 04:29
Search period end: 22 October 2014 04:29
Location: Lake Sonoma, 38.7200°N, 123.0564°W

Satellite Date Start Highest point End Downlink Frequencies (MHz)
Time Altitude Azimuth
AO-7 21 Oct 04:30:00 04:36:55 28° 96° (E) 04:43:47 29.400 - 29.500 MHz
Oscar 16 21 Oct 04:31:03 04:32:51 12° 300° (WNW) 04:34:39 437.025 USB, Beacon 2401.1428
Gurwin Techsat 1B 21 Oct 04:40:56 04:45:57 43° 289° (WNW) 04:50:56 435.225 FM
Uribyol 2 21 Oct 04:41:20 04:45:16 22° 295° (WNW) 04:49:10 436.500 FM
PCSat 21 Oct 04:45:27 04:50:37 48° 112° (ESE) 04:55:48 145.825 MHz
ITAMSAT 1 21 Oct 04:46:20 04:50:12 21° 295° (WNW) 04:54:02 435.822 SSB
TMSAT-1 21 Oct 04:54:54 04:59:55 43° 289° (WNW) 05:04:54 436.925 FM
AO-Echo 21 Oct 04:58:56 05:01:15 13° 299° (WNW) 05:03:35 ?
Uosat F 21 Oct 04:59:39 05:04:04 30° 97° (E) 05:08:28 435.120 FM
JAS-1B 21 Oct 05:04:37 05:08:02 15° 299° (WNW) 05:11:43 435.800 - 435.900 CW/SSB
OPAL 21 Oct 05:30:08 05:35:19 90° 255° (WSW) 05:40:29 ?
JAS-2 21 Oct 05:53:24 06:00:20 35° 95° (E) 06:07:17 435.800 - 435.900 CW/SSB, 435.910 FM
RS-15 21 Oct 05:57:14 06:05:40 24° 28° (NNE) 06:14:16 29.354 - 29.394 USB, Beacon 29.352 USB
Sapphire 21 Oct 06:05:55 06:10:57 39° 305° (NW) 06:16:03 437.095 MHz 1200 baud AX-25 AFSK
AO-7 21 Oct 06:21:57 06:30:05 61° 293° (WNW) 06:38:12 29.400 - 29.500 MHz
PCSat 21 Oct 06:29:52 06:34:15 25° 310° (NW) 06:38:41 145.825 MHz
Uosat F 21 Oct 06:38:25 06:42:46 30° 292° (WNW) 06:47:05 435.120 FM
STRAND 1 21 Oct 07:08:06 07:13:12 76° 75° (ENE) 07:18:21 ?
Hamsat 21 Oct 07:15:05 07:19:16 70° 284° (WNW) 07:23:26 145.90 MHz
JAS-2 21 Oct 07:38:04 07:45:23 50° 291° (WNW) 07:52:51 435.800 - 435.900 CW/SSB, 435.910 FM
SO-67 21 Oct 08:06:57 08:10:22 57° 100° (E) 08:13:45 435.3500 MHz FM
RS-15 21 Oct 08:09:24 08:20:33 69° 55° (NE) 08:32:11 29.354 - 29.394 USB, Beacon 29.352 USB
Saudisat 1A 21 Oct 08:17:24 08:21:10 29° 113° (ESE) 08:24:57 436.775 MHz
AO-7 21 Oct 08:17:55 08:21:10 13° 313° (NW) 08:24:25 29.400 - 29.500 MHz
STRAND 1 21 Oct 08:51:22 08:52:55 11° 270° (W) 08:54:29 ?
HO-68 21 Oct 09:28:17 09:34:43 34° 97° (E) 09:41:05 435.675 MHz FM
PANSAT 21 Oct 09:38:29 09:40:08 12° 167° (SSE) 09:41:48 not established
Saudisat 1A 21 Oct 09:56:51 10:00:40 28° 310° (NW) 10:04:30 436.775 MHz
MaSat-1 21 Oct 10:04:26 10:06:17 17° 56° (ENE) 10:08:03 437.345 MHz
UKube-1 21 Oct 10:07:29 10:10:57 23° 95° (E) 10:14:24 145.840 MHz, 145.915 MHz
RS-15 21 Oct 10:22:42 10:32:07 33° 255° (WSW) 10:41:54 29.354 - 29.394 USB, Beacon 29.352 USB
FUNcube-1 21 Oct 10:40:41 10:43:48 20° 94° (E) 10:46:52 145.950 - 145.970 MHz USB
Oscar 11 21 Oct 10:51:54 10:56:12 69° 101° (ESE) 11:00:28 145.825 FM, Beacon 2401.500 USB
HO-68 21 Oct 11:15:45 11:22:28 44° 294° (WNW) 11:29:09 435.675 MHz FM
PANSAT 21 Oct 11:17:01 11:19:38 18° 179° (S) 11:22:14 not established
ZACube-1 21 Oct 11:30:20 11:34:38 77° 102° (ESE) 11:38:49 437.345 MHz
MaSat-1 21 Oct 11:41:13 11:41:45 10° 256° (WSW) 11:42:16 437.345 MHz
UKube-1 21 Oct 11:43:19 11:47:07 29° 291° (WNW) 11:50:53 145.840 MHz, 145.915 MHz
FUNcube-1 21 Oct 12:16:27 12:20:15 31° 290° (WNW) 12:23:57 145.950 - 145.970 MHz USB
Oscar 10/S400 21 Oct 12:22:53 12:42:32 26° 151° (SSE) 12:57:22 145.825 - 145.975 CW/USB, Beacon 145.810 USB
Oscar 16 21 Oct 12:29:00 12:31:11 13° 61° (ENE) 12:33:22 437.025 USB, Beacon 2401.1428
Oscar 11 21 Oct 12:31:02 12:31:47 10° 297° (WNW) 12:32:31 145.825 FM, Beacon 2401.500 USB
KITSAT 1 21 Oct 12:37:05 12:44:30 42° 109° (ESE) 12:51:55 435.175 FM
PANSAT 21 Oct 12:57:13 12:59:08 13° 192° (SSW) 13:01:02 not established
SO-50 21 Oct 13:05:53 13:08:28 15° 108° (ESE) 13:11:05 436.795 FM
Sapphire 21 Oct 13:12:23 13:16:16 20° 47° (NE) 13:20:08 437.095 MHz 1200 baud AX-25 AFSK
Oscar 19 21 Oct 13:20:05 13:24:49 38° 70° (ENE) 13:29:32 437.125 CW, 437.150 USB
AO-27 21 Oct 13:29:39 13:33:21 20° 64° (ENE) 13:37:04 436.795 MHz FM
PCSat 21 Oct 13:34:50 13:39:36 30° 53° (NE) 13:44:20 145.825 MHz
JAS-1B 21 Oct 13:56:40 14:02:49 67° 73° (ENE) 14:08:27 435.800 - 435.900 CW/SSB
Oscar 16 21 Oct 14:04:40 14:09:50 79° 257° (WSW) 14:15:01 437.025 USB, Beacon 2401.1428
ISS 21 Oct 14:06:56 14:10:09 49° 137° (SE) 14:13:24 145.800 FM
Uribyol 2 21 Oct 14:17:35 14:22:41 59° 73° (ENE) 14:27:50 436.500 FM
Gurwin Techsat 1B 21 Oct 14:21:29 14:26:04 31° 68° (ENE) 14:30:41 435.225 FM
ITAMSAT 1 21 Oct 14:22:39 14:27:45 62° 73° (ENE) 14:32:55 435.822 SSB
AO-Echo 21 Oct 14:29:35 14:34:24 89° 78° (ENE) 14:39:25 ?
KITSAT 1 21 Oct 14:32:09 14:39:48 45° 308° (NW) 14:47:29 435.175 FM
TMSAT-1 21 Oct 14:35:10 14:39:44 31° 68° (ENE) 14:44:19 436.925 FM
SO-50 21 Oct 14:44:08 14:48:31 53° 305° (NW) 14:53:02 436.795 FM
UOSAT-12 21 Oct 14:49:22 14:52:11 16° 109° (ESE) 14:55:01 437.025 FM, 437.400 FM
Sapphire 21 Oct 14:54:47 15:00:10 65° 246° (WSW) 15:05:31 437.095 MHz 1200 baud AX-25 AFSK
Oscar 19 21 Oct 15:00:06 15:04:13 24° 265° (W) 15:08:22 437.125 CW, 437.150 USB
AO-27 21 Oct 15:07:27 15:12:28 49° 260° (W) 15:17:32 436.795 MHz FM
PCSat 21 Oct 15:18:05 15:23:02 37° 250° (WSW) 15:27:58 145.825 MHz
AO-7 21 Oct 15:27:41 15:34:57 36° 61° (ENE) 15:42:14 29.400 - 29.500 MHz
ISS 21 Oct 15:44:21 15:47:01 22° 334° (NNW) 15:49:43 145.800 FM
JAS-1B 21 Oct 15:50:49 15:53:55 14° 267° (W) 15:56:55 435.800 - 435.900 CW/SSB
Uribyol 2 21 Oct 15:59:28 16:02:31 16° 268° (W) 16:05:36 436.500 FM
Gurwin Techsat 1B 21 Oct 16:01:17 16:05:57 31° 264° (W) 16:10:39 435.225 FM
ITAMSAT 1 21 Oct 16:04:46 16:07:38 15° 269° (W) 16:10:32 435.822 SSB
JAS-2 21 Oct 16:09:43 16:10:40 10° 52° (NE) 16:11:39 435.800 - 435.900 CW/SSB, 435.910 FM
Uosat F 21 Oct 16:11:36 16:16:10 37° 69° (ENE) 16:20:45 435.120 FM
TMSAT-1 21 Oct 16:14:53 16:19:33 32° 264° (W) 16:24:16 436.925 FM
UOSAT-12 21 Oct 16:27:19 16:31:51 54° 305° (NW) 16:36:29 437.025 FM, 437.400 FM
KITSAT 1 21 Oct 16:34:13 16:37:38 13° 334° (NNW) 16:41:05 435.175 FM
Saudisat 1A 21 Oct 16:45:21 16:48:31 19° 46° (NE) 16:51:40 436.775 MHz
AO-7 21 Oct 17:19:29 17:27:26 51° 258° (WSW) 17:35:27 29.400 - 29.500 MHz
OPAL 21 Oct 17:42:08 17:46:13 25° 97° (E) 17:50:15 ?
JAS-2 21 Oct 17:48:38 17:54:17 70° 73° (ENE) 18:00:44 435.800 - 435.900 CW/SSB, 435.910 FM
Uosat F 21 Oct 17:51:01 17:55:00 24° 265° (W) 17:59:02 435.120 FM
Hamsat 21 Oct 18:06:44 18:10:56 68° 76° (ENE) 18:15:07 145.90 MHz
Saudisat 1A 21 Oct 18:24:04 18:28:21 50° 243° (WSW) 18:32:36 436.775 MHz
SO-67 21 Oct 18:39:26 18:41:31 15° 69° (ENE) 18:43:37 435.3500 MHz FM
ISS 21 Oct 19:01:17 19:02:41 12° 15° (NNE) 19:04:04 145.800 FM
STRAND 1 21 Oct 19:20:35 19:25:01 28° 96° (E) 19:29:25 ?
OPAL 21 Oct 19:20:39 19:25:07 34° 293° (WNW) 19:29:32 ?
JAS-2 21 Oct 19:36:53 19:40:10 15° 273° (W) 19:43:41 435.800 - 435.900 CW/SSB, 435.910 FM
HO-68 21 Oct 19:56:35 20:01:57 24° 59° (ENE) 20:07:20 435.675 MHz FM
SO-67 21 Oct 20:11:21 20:14:16 26° 264° (W) 20:17:12 435.3500 MHz FM
KITSAT 1 21 Oct 20:31:52 20:37:24 19° 36° (NE) 20:42:54 435.175 FM
ISS 21 Oct 20:36:53 20:40:05 42° 33° (NNE) 20:43:16 145.800 FM
STRAND 1 21 Oct 20:59:37 21:04:09 32° 292° (WNW) 21:08:41 ?
UKube-1 21 Oct 21:02:19 21:05:14 18° 66° (ENE) 21:08:10 145.840 MHz, 145.915 MHz
FUNcube-1 21 Oct 21:36:14 21:39:02 16° 66° (ENE) 21:41:49 145.950 - 145.970 MHz USB
SO-50 21 Oct 21:37:43 21:40:21 14° 41° (NE) 21:43:00 436.795 FM
HO-68 21 Oct 21:41:55 21:49:01 67° 257° (WSW) 21:56:11 435.675 MHz FM
Oscar 11 21 Oct 21:45:31 21:49:38 45° 73° (ENE) 21:53:46 145.825 FM, Beacon 2401.500 USB
ISS 21 Oct 22:14:06 22:16:35 19° 229° (SW) 22:19:02 145.800 FM
ZACube-1 21 Oct 22:24:55 22:29:24 53° 74° (ENE) 22:33:51 437.345 MHz
KITSAT 1 21 Oct 22:26:11 22:34:17 74° 59° (ENE) 22:42:20 435.175 FM
RS-15 21 Oct 22:31:27 22:41:50 49° 110° (ESE) 22:52:05 29.354 - 29.394 USB, Beacon 29.352 USB
UKube-1 21 Oct 22:37:03 22:41:07 39° 261° (W) 22:45:12 145.840 MHz, 145.915 MHz
FUNcube-1 21 Oct 23:10:33 23:15:00 49° 261° (W) 23:19:27 145.950 - 145.970 MHz USB
SO-50 21 Oct 23:16:41 23:21:34 88° 240° (WSW) 23:26:27 436.795 FM
UOSAT-12 21 Oct 23:19:42 23:22:00 13° 40° (NE) 23:24:17 437.025 FM, 437.400 FM
Oscar 11 21 Oct 23:23:37 23:26:01 15° 268° (W) 23:28:26 145.825 FM, Beacon 2401.500 USB
MaSat-1 21 Oct 23:41:50 23:43:33 12° 104° (ESE) 23:45:13 437.345 MHz
ZACube-1 22 Oct 00:03:39 00:06:03 14° 268° (W) 00:08:27 437.345 MHz
KITSAT 1 22 Oct 00:23:00 00:28:51 23° 257° (WSW) 00:34:42 435.175 FM
RS-15 22 Oct 00:43:41 00:54:09 48° 312° (NW) 01:04:40 29.354 - 29.394 USB, Beacon 29.352 USB
UOSAT-12 22 Oct 00:58:06 01:02:51 89° 60° (ENE) 01:07:29 437.025 FM, 437.400 FM
MaSat-1 22 Oct 01:14:46 01:18:57 53° 296° (WNW) 01:22:47 437.345 MHz
Oscar 19 22 Oct 01:34:26 01:37:09 14° 91° (E) 01:39:51 437.125 CW, 437.150 USB
JAS-1B 22 Oct 01:41:19 01:46:11 20° 95° (E) 01:51:36 435.800 - 435.900 CW/SSB
Oscar 16 22 Oct 02:17:58 02:22:47 40° 98° (E) 02:27:35 437.025 USB, Beacon 2401.1428
Uribyol 2 22 Oct 02:32:26 02:36:33 23° 95° (E) 02:40:37 436.500 FM
ITAMSAT 1 22 Oct 02:37:34 02:41:47 24° 95° (E) 02:45:58 435.822 SSB
AO-Echo 22 Oct 02:38:12 02:43:00 34° 97° (E) 02:47:47 ?
Gurwin Techsat 1B 22 Oct 02:40:31 02:42:56 13° 90° (E) 02:45:20 435.225 FM
TMSAT-1 22 Oct 02:53:54 02:56:13 13° 90° (E) 02:58:30 436.925 FM
RS-15 22 Oct 03:03:08 03:10:14 19° 344° (NNW) 03:17:25 29.354 - 29.394 USB, Beacon 29.352 USB
Oscar 19 22 Oct 03:11:50 03:16:53 61° 287° (WNW) 03:21:54 437.125 CW, 437.150 USB
AO-27 22 Oct 03:21:37 03:26:51 67° 102° (ESE) 03:32:02 436.795 MHz FM
JAS-1B 22 Oct 03:30:33 03:37:01 67° 287° (WNW) 03:44:45 435.800 - 435.900 CW/SSB
Sapphire 22 Oct 03:53:40 03:57:27 20° 105° (ESE) 04:01:15 437.095 MHz 1200 baud AX-25 AFSK
Oscar 16 22 Oct 03:57:55 04:01:52 23° 294° (WNW) 04:05:48 437.025 USB, Beacon 2401.1428
Uribyol 2 22 Oct 04:11:17 04:16:07 40° 290° (WNW) 04:20:55 436.500 FM
PCSat 22 Oct 04:15:19 04:20:08 34° 109° (ESE) 04:24:59 145.825 MHz
ITAMSAT 1 22 Oct 04:16:32 04:21:21 38° 291° (WNW) 04:26:07 435.822 SSB
AO-Echo 22 Oct 04:17:06 04:21:37 29° 292° (WNW) 04:26:08 ?
Gurwin Techsat 1B 22 Oct 04:18:05 04:23:23 71° 286° (WNW) 04:28:39 435.225 FM
Uosat F 22 Oct 04:22:38 04:24:34 12° 91° (E) 04:26:30 435.120 FM
